THOR BURNER 2 R/B, 2877

Orbit data source: Space-Track

THOR BURNER 2 R/B, 2877 is space debris in LEO originally from a launch on Thu, 29 Jun 1967 UTC launched from the Air Force Western Test Range (AFWTR). Debris objects in space refer to the collection of defunct objects orbiting the Earth. Examples of debris include non-operational satellites, rocket bodies, and fragments generated from explosions, collisions, or faulty payload assembly.

Loading next visibility...
THOR BURNER 2 R/B details
Identifier
2877, 1967-065C
Orbit
LEO
Last TLE update1 day ago
Origin
Flag of USUSAF SSD (US)
ManufacturerBOKT/THKE
MissionSpacecraft
Bus & MotorSTAR 13, STAR 13
Mass58 kg wet, 25 kg dry
Launch date (UTC)
1967-06-29 (57 years ago)
Launch vehicleUnknown
Launch site
Air Force Western Test Range (AFWTR)
Object type
Payload
Rocket body
Debris
Shape & HBRSphere + 1 Nozzle, 0.7 m
Radar Cross Section0.385 m², Medium (>0.1 m² and < 1m²)

Expand to show TLE details & history

TLE from 1 day ago
0 THOR BURNER 2 R/B
1 02877U 67065C   24355.29382821  .00000016  00000-0  92627-2 0  9997
2 02877  90.0167 313.7359 0067243 252.3463 107.0023  8.36608831755493
Epoch: 2024-12-20T07:03Z
Definitive object data (Epoch: 2024-12-20T07:03:06.757Z)
Latitude0.00008°
Longitude118.59634°
Altitude3,894.503 km
Speed6.224 km/s
True Right ascension20h 54m 56s
True Declination0° 00' 00"
Sunlit
Object was in daylight at TLE epoch
Visualization TLE readout
Latitude-78.50665°
Longitude-61.48477°
Altitude3,831.349 km
Speed6.271 km/s
Apparent Right ascension02h 28m 27s
Apparent Declination-73° 15' 19"
Sunlit
Object is in daylight
Visualization observer readout
Local Sidereal Time12:50:47
Azimuth191.881° SSW
Elevation-54.653°
Doppler factor1
Orbital elements
Apogee altitude3,938.544 km
Perigee altitude3,800.726 km
Semi-major axis10,247.772 km
Eccentricity0.0067243
Inclination90.0167°
RAAN313.7359°
Arg. of periapsis252.3463°
True anomaly107.73734°
Mean anomaly107.0023°
Eccentric anomaly107.37°
Mean motion2.09218 °/min
BSTAR0.0092627
Orbital period172.07 mins
Loading maneuver chart data...
Loading historical data...
Loading historical data...
Loading historical data...
Loading historical data...
Loading historical data...
Loading historical data...
Loading historical data...

THOR BURNER 2 R/B Visibility forecast

Observer location: undefined°, undefined

Span
Click to sort rows by Start time (UTC) header in descending order
Start Az.
Max El. time (UTC)
Max El. Az.
Max El.
End time (UTC)
End Az.
10 mins2024-12-21 17:53:45.503Z54.374° ENE2024-12-21 17:58:45.503Z38.822° NE11.662°2024-12-21 18:03:45.503Z23.348° NE
36 mins2024-12-21 20:24:45.503Z143.521° SSE2024-12-21 20:41:45.503Z74.309° E39.944°2024-12-21 21:00:45.503Z2.796° NNE
36 mins2024-12-21 23:15:45.503Z213.815° SW2024-12-21 23:33:45.503Z284.138° WNW34.949°2024-12-21 23:51:45.503Z351.582° N
11 mins2024-12-22 05:53:45.503Z33.847° NE2024-12-22 05:58:45.503Z49.615° ENE11.775°2024-12-22 06:04:45.503Z68.516° E
38 mins2024-12-22 08:38:45.503Z5.043° NNE2024-12-22 08:57:45.503Z85.482° E42.082°2024-12-22 09:16:45.503Z167.216° S
32 mins2024-12-22 11:31:45.503Z351.633° N2024-12-22 11:46:45.503Z297.145° NW32.112°2024-12-22 12:03:45.503Z235.274° WSW
|